Location: Firdgum
(53.2488°N, 5.5615°E)
Time: 08:41:05
(UTC+00:00)

Meteor 1-5 Rocket - Pass Details

Date: 08 December 2019
Orbit: 788 x 916 km, 81.2° (Epoch: 19 January)

Event Time Altitude Azimuth Distance (km) Brightness Sun altitude
Rises 06:30:50 0° 193° (SSW) 3,541 7.6 -9.4°
Reaches altitude 10° 06:33:18 10° 195° (SSW) 2,598 6.9 -9.0°
Maximum altitude 06:39:16 83° 283° (WNW) 917 4.3 -8.2°
Drops below altitude 10° 06:45:09 10° 12° (NNE) 2,562 6.6 -7.5°
Sets 06:47:35 0° 14° (NNE) 3,487 7.2 -7.2°
